{"data":{"norad_id":31490,"intl_designator":"2007-019A","name":"YAOGAN-2","alt_names":[],"object_type":"PAYLOAD","status":"ACTIVE","operator":null,"country":"PRC","launch_date":"2007-05-25","launch_site_code":"JSC","launch_vehicle":null,"mission":null,"orbit_class":"UNKNOWN","rcs_meters":3.0627,"size_class":null,"mass_kg":null,"dimensions":null,"purposes":[],"wikipedia_slug":null,"has_3d_model":false,"image_url":null,"decayed_at":null,"tle_current":{"epoch":"2026-05-25T03:25:46.348320Z","epoch_age_seconds":66253,"freshness":"FRESH","line1":"1 31490U 07019A   26145.14289755  .00000676  00000+0  90812-4 0  9995","line2":"2 31490  98.2675   4.9740 0020367 352.1158   7.9731 14.82634963 24204","mean_motion":14.82634963,"eccentricity":0.0020367,"inclination_deg":98.2675,"raan_deg":4.974,"arg_perigee_deg":352.1158,"mean_anomaly_deg":7.9731,"bstar":9.0812e-5,"rev_number":2420,"period_min":97.124378956117,"perigee_km":606.76397621115,"apogee_km":635.27433890334,"semimajor_km":6999.1561575572,"source":"CELESTRAK","updated_at":"2026-05-25T13:37:55.113725Z"}}}